Destin, FL

1:02 AM CST on February 14, 2016 (GMT -0600)
Destin-Fort Walton Beach

Weather History for KDTS - February, 2014

Change the Weather History Date:

Saturday, February 8, 2014

  Actual Average Record
Temperature  
Mean Temperature 54 °F -  
Max Temperature 59 °F 59 °F 69 °F (1999)
Min Temperature 48 °F 45 °F 32 °F (2004)
Degree Days  
Heating Degree Days 12    
Growing Degree Days 4 (Base 50)    
Moisture  
Dew Point 46 °F    
Average Humidity 82    
Maximum Humidity 90    
Minimum Humidity 67    
Precipitation  
Precipitation 0.40 in - - ()
Sea Level Pressure  
Sea Level Pressure 30.18 in    
Wind  
Wind Speed 5 mph (NE)    
Max Wind Speed 8 mph    
Max Gust Speed -    
Visibility 8 miles    
Events Rain    
Averages and records for this station are not official NWS values.
T = Trace of Precipitation, MM = Missing Value Source: NWS Daily Summary

Daily Weather History Graph

Daily Weather History Graph

Search for Another Location

Airport or City:

Trip Planner

Search our weather history database for the weather conditions in past years. The results will help you decide how hot, cold, wet, or windy it might be!

Date:

Astronomy

Feb. 08, 2014 Rise Set
Actual Time 6:31 AM CST 5:28 PM CST
Civil Twilight 6:07 AM CST 5:53 PM CST
Nautical Twilight 5:38 AM CST 6:21 PM CST
Astronomical Twilight 5:10 AM CST 6:49 PM CST
Moon 12:28 PM CST (2/8) 1:38 AM CST (2/8)
Length of Visible Light 11h 46m
Length of Day
10h 56m
Waxing Gibbous, 69% of the Moon is Illuminated
Feb 8
Waxing Gibbous
Feb 14
Full
Feb 22
Last Quarter
Mar 1
New
Mar 8
First Quarter

Hourly Weather History & Observations

Time (CST) Temp. Dew Point Humidity Pressure Visibility Wind Dir Wind Speed Gust Speed Precip Events Conditions
12:53 AM 48.0 °F 44.1 °F 86% 30.19 in 8.0 mi NNE 6.9 mph - 0.04 in Rain Light Rain
1:53 AM 48.0 °F 44.1 °F 86% 30.18 in 4.0 mi NE 6.9 mph - 0.04 in Rain Rain
2:53 AM 48.0 °F 44.1 °F 86% 30.19 in 3.0 mi NNE 4.6 mph - 0.08 in Rain Heavy Rain
3:53 AM 48.0 °F 45.0 °F 89% 30.18 in 5.0 mi ENE 3.5 mph - 0.12 in Rain Rain
4:53 AM 48.0 °F 45.0 °F 89% 30.20 in 4.0 mi NNE 3.5 mph - 0.10 in Rain Rain
5:20 AM 48.0 °F 45.0 °F 89% 30.20 in 6.0 mi NNE 5.8 mph - 0.02 in Rain Light Rain
5:31 AM 48.0 °F 45.0 °F 89% 30.20 in 7.0 mi NE 5.8 mph - 0.02 in Rain Light Rain
5:53 AM 48.0 °F 45.0 °F 89% 30.20 in 7.0 mi NNE 4.6 mph - 0.02 in   Overcast
6:53 AM 48.0 °F 44.1 °F 86% 30.21 in 7.0 mi NE 5.8 mph - 0.00 in   Mostly Cloudy
7:49 AM 48.2 °F 44.6 °F 87% 30.21 in 8.0 mi NE 3.5 mph - N/A   Partly Cloudy
7:53 AM 48.9 °F 46.0 °F 90% 30.21 in 8.0 mi NE 3.5 mph - N/A   Partly Cloudy
8:33 AM 50.0 °F 46.0 °F 86% 30.23 in 10.0 mi ENE 4.6 mph - N/A   Mostly Cloudy
8:53 AM 51.1 °F 46.0 °F 83% 30.23 in 10.0 mi ENE 4.6 mph - N/A   Scattered Clouds
9:53 AM 54.0 °F 46.9 °F 77% 30.24 in 10.0 mi Variable 3.5 mph - N/A   Partly Cloudy
10:53 AM 57.0 °F 46.9 °F 69% 30.23 in 10.0 mi Calm Calm - N/A   Clear
11:53 AM 57.9 °F 48.0 °F 70% 30.18 in 10.0 mi SSE 8.1 mph - N/A   Clear
12:53 PM 57.9 °F 48.0 °F 70% 30.14 in 10.0 mi South 5.8 mph - N/A   Clear
1:53 PM 59.0 °F 48.0 °F 67% 30.13 in 10.0 mi South 5.8 mph - N/A   Clear
2:53 PM 59.0 °F 48.9 °F 69% 30.12 in 10.0 mi SW 6.9 mph - N/A   Clear
3:53 PM 59.0 °F 48.9 °F 69% 30.13 in 10.0 mi WSW 8.1 mph - N/A   Clear
4:53 PM 57.9 °F 48.0 °F 70% 30.13 in 10.0 mi WSW 4.6 mph - N/A   Clear
5:53 PM 57.0 °F 48.9 °F 74% 30.13 in 10.0 mi WSW 3.5 mph - N/A   Clear
6:53 PM 55.9 °F 48.0 °F 75% 30.14 in 10.0 mi Calm Calm - N/A   Clear
7:53 PM 52.0 °F 46.0 °F 80% 30.15 in 10.0 mi Calm Calm - N/A   Clear
8:53 PM 51.1 °F 46.9 °F 86% 30.15 in 10.0 mi Calm Calm - N/A   Clear
9:53 PM 50.0 °F 46.0 °F 86% 30.16 in 10.0 mi Calm Calm - N/A   Clear
10:51 PM 48.2 °F 44.6 °F 87% 30.15 in 2.5 mi Calm Calm - N/A   Clear
10:53 PM 48.0 °F 45.0 °F 89% 30.15 in 2.5 mi Calm Calm - N/A   Clear
11:00 PM 48.0 °F 45.0 °F 89% 30.15 in 9.0 mi Calm Calm - N/A   Clear
11:53 PM 48.0 °F 44.1 °F 86% 30.15 in 9.0 mi Calm Calm - N/A   Clear